Location: Winthrop
(48.4780°N, 120.1850°W)
Time: 18:28:12
(UTC-07:00)

XW-2A - Pass Details

Date: 22 May 2022
Orbit: 397 x 413 km, 97.2° (Epoch: 29 June)

Event Time Altitude Azimuth Distance (km) Brightness Sun altitude
Exits shadow 21:42:36 - 161° (SSE) 1,559 ? -8.4°
Reaches altitude 10° 21:42:44 10° 161° (SSE) 1,503 ? -8.4°
Maximum altitude 21:45:56 75° 76° (ENE) 442 ? -8.8°
Drops below altitude 10° 21:49:10 10° 351° (N) 1,515 ? -9.2°
Sets 21:51:11 0° 349° (N) 2,383 ? -9.4°
